QPF
0.00 0.00 0.01 0.10 0.08 0.10 0.07 0.00 0.00 0.00 0.00 0.00 0.00 0.00 0.00 0.00 0.00 0.00 0.00 0.00 0.00 0.00 0.00 0.00 0.00 0.01 0.00 0.00 0.00 0.00 0.00 0.00 0.01 0.01 0.01 0.01 0.00 0.01 0.00 0.00 0.00 0.00 0.00 0.00 0.00 0.00 0.00 0.00 0.00
0.00 0.01 0.16 0.18 0.13 0.12 0.04 0.00 0.00 0.00 0.00 0.00 0.00 0.00 0.00 0.00 0.00 0.00 0.00 0.00 0.00 0.00 0.00 0.00 0.00 0.01 0.00 0.00 0.00 0.01 0.01 0.01 0.01 0.01 0.02 0.02 0.00 0.01 0.00 0.00 0.00 0.00 0.00 0.00 0.00 0.00 0.00 0.00 0.00
0.01 0.01 0.15 0.11 0.15 0.05 0.00 0.00 0.00 0.00 0.00 0.00 0.00 0.00 0.00 0.00 0.00 0.00 0.00 0.00 0.00 0.00 0.00 0.00 0.00 0.00 0.00 0.00 0.00 0.00 0.00 0.00 0.00 0.00 0.00 0.00 0.00 0.00 0.00 0.00 0.00 0.00 0.00 0.00 0.00 0.00 0.00 0.00 0.00
0.08 0.07 0.06 0.10 0.06 0.00 0.00 0.00 0.00 0.00 0.00 0.00 0.00 0.00 0.00 0.00 0.00 0.00 0.00 0.00 0.00 0.00 0.00 0.00 0.00 0.00 0.00 0.00 0.00 0.00 0.00 0.00 0.00 0.00 0.00 0.00 0.00 0.00 0.00 0.00 0.00 0.00 0.00 0.00 0.00 0.00 0.00 0.00 0.00
0.05 0.06 0.08 0.08 0.01 0.00 0.00 0.00 0.00 0.00 0.00 0.00 0.00 0.00 0.00 0.00 0.00 0.00 0.00 0.00 0.00 0.00 0.00 0.00 0.00 0.00 0.00 0.00 0.00 0.00 0.00 0.00 0.00 0.00 0.00 0.00 0.00 0.00 0.00 0.00 0.00 0.00 0.00 0.00 0.00 0.00 0.00 0.00 0.00
0.06 0.01 0.06 0.03 0.00 0.00 0.00 0.00 0.00 0.00 0.00 0.00 0.00 0.00 0.00 0.00 0.00 0.00 0.00 0.00 0.00 0.00 0.00 0.00 0.00 0.00 0.00 0.00 0.00 0.00 0.00 0.00 0.00 0.00 0.00 0.00 0.00 0.00 0.00 0.00 0.00 0.00 0.00 0.00 0.00 0.00 0.00 0.00 0.00
0.11 0.02 0.04 0.01 0.00 0.00 0.01 0.00 0.00 0.00 0.00 0.00 0.00 0.00 0.00 0.00 0.00 0.00 0.00 0.00 0.00 0.00 0.00 0.00 0.00 0.00 0.00 0.00 0.00 0.00 0.00 0.00 0.00 0.00 0.00 0.00 0.00 0.00 0.00 0.00 0.00 0.00 0.00 0.00 0.00 0.00 0.00 0.00 0.00
0.14 0.07 0.06 0.05 0.00 0.00 0.00 0.00 0.00 0.00 0.00 0.00 0.00 0.00 0.00 0.00 0.00 0.00 0.00 0.00 0.00 0.00 0.00 0.00 0.00 0.00 0.00 0.00 0.00 0.00 0.00 0.00 0.00 0.00 0.00 0.00 0.00 0.00 0.00 0.00 0.00 0.00 0.00 0.01 0.01 0.01 0.00 0.00 0.00
0.08 0.05 0.01 0.05 0.08 0.02 0.00 0.00 0.00 0.00 0.01 0.01 0.00 0.00 0.00 0.00 0.00 0.00 0.00 0.00 0.00 0.00 0.00 0.00 0.00 0.00 0.00 0.00 0.00 0.00 0.00 0.00 0.00 0.00 0.00 0.02 0.03 0.01 0.00 0.00 0.00 0.00 0.00 0.00 0.00 0.00 0.00 0.00 0.00
0.01 0.00 0.00 0.00 0.07 0.09 0.01 0.01 0.00 0.01 0.02 0.00 0.00 0.00 0.00 0.00 0.00 0.00 0.00 0.00 0.00 0.00 0.00 0.00 0.00 0.00 0.00 0.00 0.00 0.01 0.00 0.02 0.04 0.03 0.03 0.02 0.08 0.09 0.03 0.01 0.01 0.01 0.05 0.06 0.02 0.00 0.00 0.00 0.00
0.00 0.00 0.00 0.00 0.00 0.11 0.09 0.03 0.03 0.03 0.03 0.00 0.00 0.00 0.00 0.00 0.00 0.00 0.00 0.00 0.00 0.00 0.00 0.00 0.00 0.00 0.00 0.00 0.00 0.01 0.02 0.04 0.06 0.10 0.16 0.23 0.20 0.17 0.11 0.06 0.01 0.01 0.03 0.04 0.02 0.02 0.00 0.00 0.00
0.00 0.00 0.00 0.00 0.01 0.07 0.08 0.04 0.02 0.02 0.02 0.01 0.00 0.00 0.00 0.00 0.00 0.00 0.00 0.00 0.00 0.00 0.00 0.00 0.00 0.00 0.00 0.00 0.00 0.00 0.00 0.01 0.03 0.04 0.13 0.09 0.13 0.10 0.14 0.06 0.08 0.03 0.01 0.04 0.02 0.03 0.02 0.02 0.01
0.00 0.00 0.00 0.00 0.03 0.09 0.10 0.11 0.03 0.02 0.04 0.01 0.00 0.00 0.00 0.00 0.00 0.00 0.00 0.00 0.00 0.00 0.00 0.00 0.00 0.00 0.00 0.00 0.00 0.01 0.00 0.00 0.00 0.02 0.07 0.01 0.02 0.06 0.04 0.04 0.05 0.03 0.06 0.04 0.01 0.00 0.00 0.04 0.03
0.00 0.00 0.00 0.00 0.08 0.06 0.06 0.12 0.07 0.04 0.01 0.00 0.00 0.00 0.00 0.00 0.00 0.00 0.00 0.00 0.00 0.00 0.00 0.00 0.00 0.00 0.00 0.00 0.00 0.00 0.02 0.01 0.02 0.01 0.02 0.01 0.03 0.10 0.16 0.11 0.04 0.05 0.12 0.04 0.00 0.00 0.01 0.00 0.00
0.00 0.00 0.00 0.01 0.05 0.07 0.02 0.05 0.13 0.14 0.02 0.00 0.00 0.00 0.00 0.00 0.00 0.00 0.00 0.00 0.00 0.00 0.00 0.00 0.00 0.00 0.00 0.00 0.00 0.00 0.00 0.00 0.00 0.00 0.00 0.00 0.00 0.01 0.02 0.00 0.00 0.00 0.00 0.00 0.00 0.02 0.01 0.00 0.00
0.00 0.00 0.00 0.00 0.01 0.03 0.03 0.03 0.02 0.10 0.09 0.00 0.00 0.00 0.00 0.00 0.00 0.00 0.00 0.00 0.00 0.00 0.00 0.00 0.00 0.00 0.00 0.00 0.00 0.00 0.00 0.00 0.00 0.00 0.00 0.00 0.01 0.05 0.01 0.00 0.00 0.00 0.00 0.00 0.00 0.00 0.00 0.00 0.00
0.00 0.00 0.00 0.00 0.01 0.00 0.02 0.01 0.00 0.02 0.07 0.01 0.00 0.00 0.00 0.00 0.00 0.00 0.00 0.00 0.00 0.00 0.00 0.00 0.00 0.00 0.00 0.00 0.00 0.00 0.00 0.00 0.00 0.00 0.00 0.00 0.00 0.00 0.00 0.00 0.00 0.00 0.00 0.00 0.00 0.00 0.00 0.00 0.00
0.00 0.00 0.00 0.00 0.00 0.00 0.00 0.01 0.00 0.02 0.01 0.03 0.00 0.00 0.00 0.00 0.00 0.00 0.00 0.00 0.00 0.00 0.00 0.00 0.00 0.00 0.00 0.00 0.00 0.00 0.00 0.00 0.00 0.00 0.00 0.00 0.00 0.00 0.00 0.00 0.00 0.00 0.00 0.00 0.00 0.00 0.00 0.00 0.00
0.00 0.00 0.00 0.00 0.00 0.00 0.00 0.00 0.00 0.03 0.03 0.04 0.04 0.00 0.00 0.00 0.00 0.00 0.00 0.00 0.00 0.00 0.00 0.00 0.00 0.00 0.00 0.00 0.00 0.00 0.00 0.00 0.00 0.00 0.00 0.00 0.00 0.00 0.00 0.00 0.00 0.00 0.00 0.00 0.00 0.00 0.00 0.00 0.00
0.00 0.00 0.00 0.01 0.00 0.00 0.00 0.00 0.00 0.01 0.05 0.08 0.06 0.02 0.00 0.00 0.00 0.00 0.00 0.00 0.00 0.00 0.00 0.00 0.00 0.00 0.00 0.00 0.00 0.00 0.00 0.00 0.00 0.00 0.00 0.00 0.00 0.00 0.00 0.00 0.00 0.00 0.00 0.00 0.00 0.00 0.00 0.00 0.00
0.00 0.00 0.00 0.00 0.00 0.00 0.00 0.01 0.00 0.00 0.06 0.03 0.01 0.02 0.00 0.00 0.00 0.00 0.00 0.00 0.00 0.00 0.00 0.00 0.00 0.00 0.00 0.00 0.00 0.00 0.00 0.00 0.00 0.00 0.00 0.00 0.00 0.00 0.00 0.00 0.00 0.00 0.00 0.00 0.00 0.00 0.00 0.00 0.00
0.00 0.00 0.00 0.00 0.00 0.00 0.00 0.00 0.00 0.00 0.02 0.02 0.03 0.02 0.00 0.00 0.00 0.00 0.00 0.00 0.00 0.00 0.00 0.00 0.00 0.00 0.00 0.00 0.00 0.00 0.00 0.00 0.00 0.00 0.00 0.00 0.00 0.00 0.00 0.00 0.00 0.00 0.00 0.00 0.00 0.00 0.00 0.00 0.00
0.00 0.00 0.00 0.00 0.00 0.00 0.00 0.00 0.00 0.01 0.01 0.01 0.03 0.02 0.01 0.00 0.00 0.00 0.00 0.00 0.00 0.00 0.00 0.00 0.00 0.00 0.00 0.00 0.00 0.00 0.00 0.00 0.00 0.00 0.00 0.00 0.00 0.00 0.00 0.00 0.00 0.00 0.00 0.00 0.00 0.00 0.00 0.00 0.00
0.00 0.00 0.00 0.00 0.00 0.00 0.00 0.00 0.00 0.00 0.00 0.00 0.01 0.00 0.00 0.00 0.00 0.00 0.00 0.00 0.00 0.00 0.00 0.00 0.00 0.00 0.00 0.00 0.00 0.00 0.00 0.00 0.00 0.00 0.00 0.00 0.00 0.00 0.00 0.00 0.00 0.00 0.00 0.00 0.00 0.00 0.00 0.00 0.00
0.00 0.00 0.00 0.00 0.00 0.00 0.00 0.00 0.00 0.00 0.00 0.00 0.00 0.00 0.00 0.00 0.00 0.00 0.00 0.00 0.00 0.00 0.00 0.00 0.00 0.00 0.00 0.00 0.00 0.00 0.00 0.00 0.00 0.00 0.00 0.00 0.00 0.00 0.00 0.00 0.00 0.00 0.00 0.00 0.00 0.00 0.00 0.00 0.00
0.00 0.00 0.00 0.00 0.00 0.00 0.00 0.00 0.00 0.00 0.00 0.00 0.00 0.00 0.00 0.00 0.00 0.00 0.00 0.00 0.00 0.00 0.00 0.00 0.00 0.00 0.00 0.00 0.00 0.00 0.00 0.00 0.00 0.00 0.00 0.00 0.00 0.00 0.00 0.00 0.00 0.00 0.00 0.00 0.00 0.00 0.00 0.00 0.00
0.00 0.00 0.00 0.00 0.00 0.00 0.00 0.00 0.00 0.00 0.00 0.00 0.00 0.00 0.00 0.00 0.00 0.00 0.00 0.00 0.00 0.00 0.00 0.00 0.00 0.00 0.00 0.00 0.00 0.00 0.00 0.00 0.00 0.00 0.00 0.00 0.00 0.00 0.00 0.00 0.00 0.00 0.00 0.00 0.00 0.00 0.00 0.00 0.00
0.00 0.00 0.00 0.00 0.00 0.00 0.00 0.00 0.00 0.00 0.00 0.00 0.00 0.00 0.00 0.00 0.00 0.00 0.00 0.00 0.00 0.00 0.00 0.00 0.00 0.00 0.00 0.00 0.00 0.00 0.00 0.00 0.00 0.00 0.00 0.00 0.00 0.00 0.00 0.00 0.00 0.00 0.00 0.00 0.00 0.00 0.00 0.00 0.00
0.00 0.00 0.00 0.00 0.00 0.00 0.00 0.00 0.00 0.00 0.00 0.00 0.01 0.00 0.00 0.00 0.00 0.00 0.00 0.00 0.00 0.00 0.00 0.00 0.00 0.00 0.00 0.00 0.00 0.00 0.00 0.00 0.00 0.00 0.00 0.00 0.00 0.00 0.00 0.00 0.00 0.00 0.00 0.00 0.00 0.00 0.00 0.00 0.00
0.00 0.00 0.00 0.00 0.00 0.00 0.00 0.00 0.00 0.00 0.00 0.00 0.00 0.00 0.00 0.00 0.00 0.00 0.00 0.00 0.00 0.00 0.00 0.00 0.00 0.00 0.00 0.00 0.00 0.00 0.00 0.00 0.00 0.00 0.00 0.00 0.00 0.00 0.00 0.00 0.00 0.00 0.00 0.00 0.00 0.00 0.00 0.00 0.00
MSLP
1009.16 1009.30 1009.47 1009.63 1010.27 1008.98 1006.87 1005.32 1003.71 1003.81 1003.94 1004.16 1004.51 1005.67 1007.33 1007.58 1008.09 1010.86 1011.32 1011.99 1012.63 1013.35 1013.74 1013.99 1014.16 1014.27 1014.51 1014.61 1014.68 1014.76 1014.86 1014.94 1015.01 1015.15 1015.26 1015.43 1015.55 1015.65 1015.60 1015.64 1015.65 1015.79 1016.03 1016.24 1016.37 1016.47 1016.70 1017.00 1017.24
1008.70 1009.10 1009.34 1009.30 1008.13 1007.72 1005.83 1004.23 1003.81 1003.81 1004.16 1004.67 1005.54 1006.55 1007.22 1008.67 1008.78 1010.36 1011.50 1012.15 1012.43 1013.20 1013.76 1014.07 1014.30 1014.46 1014.67 1014.74 1014.83 1014.93 1015.05 1015.20 1015.32 1015.50 1015.60 1015.69 1015.71 1015.81 1015.65 1015.69 1015.78 1015.96 1016.14 1016.33 1016.49 1016.61 1016.78 1017.17 1017.40
1008.32 1008.23 1008.54 1008.97 1008.03 1006.16 1004.83 1004.08 1003.75 1003.76 1004.05 1004.61 1005.73 1006.55 1007.83 1009.19 1009.57 1010.44 1011.45 1011.90 1012.42 1013.35 1013.80 1014.15 1014.42 1014.63 1014.77 1014.89 1015.07 1015.21 1015.37 1015.45 1015.54 1015.64 1015.72 1015.81 1015.84 1015.72 1015.74 1015.77 1015.81 1016.00 1016.23 1016.41 1016.56 1016.68 1016.89 1017.25 1017.47
1008.85 1008.78 1009.12 1008.81 1006.89 1004.82 1003.78 1003.71 1003.75 1004.33 1005.00 1005.50 1006.04 1007.68 1008.68 1008.99 1009.78 1010.66 1011.35 1012.12 1012.76 1013.48 1013.83 1014.27 1014.59 1014.76 1015.04 1015.21 1015.45 1015.64 1015.72 1015.72 1015.77 1015.79 1015.82 1015.85 1015.97 1016.02 1016.05 1016.13 1016.17 1016.37 1016.53 1016.56 1016.63 1016.71 1017.02 1017.38 1017.43
1008.93 1008.71 1008.91 1007.94 1006.50 1004.24 1003.61 1003.57 1003.92 1004.43 1005.42 1006.29 1006.61 1008.28 1009.01 1009.45 1010.08 1010.61 1011.40 1012.18 1012.92 1013.79 1014.05 1014.44 1014.72 1015.03 1015.16 1015.31 1015.56 1015.73 1015.87 1016.05 1016.19 1016.21 1016.17 1016.20 1016.29 1016.39 1016.51 1016.55 1016.55 1016.64 1016.71 1016.79 1016.76 1016.85 1017.09 1017.55 1017.55
1008.86 1009.23 1008.87 1008.03 1006.37 1004.28 1003.72 1003.79 1004.03 1004.97 1005.94 1006.89 1007.47 1008.58 1009.48 1009.78 1010.31 1010.55 1011.24 1012.17 1012.83 1013.69 1014.23 1014.54 1015.00 1015.14 1015.26 1015.53 1015.74 1015.94 1015.92 1016.17 1016.32 1016.31 1016.35 1016.38 1016.42 1016.46 1016.56 1016.57 1016.63 1016.74 1016.80 1016.97 1017.10 1017.17 1017.20 1017.56 1017.57
1008.68 1009.43 1009.03 1007.65 1005.49 1004.62 1004.21 1003.63 1004.29 1005.15 1006.07 1006.94 1007.64 1008.79 1009.75 1010.01 1009.94 1010.32 1011.40 1012.29 1013.05 1013.56 1014.25 1014.80 1015.19 1015.22 1015.39 1015.65 1015.87 1015.85 1015.95 1016.32 1016.35 1016.40 1016.60 1016.66 1016.73 1016.72 1016.75 1016.76 1016.75 1016.77 1017.05 1017.29 1017.43 1017.43 1017.57 1017.62 1017.72
1008.76 1009.50 1008.61 1008.17 1006.42 1005.42 1004.56 1004.39 1004.60 1004.89 1005.67 1006.68 1007.13 1008.55 1009.29 1009.52 1009.77 1010.56 1011.53 1012.31 1012.76 1013.57 1014.07 1014.80 1015.18 1015.38 1015.50 1015.75 1015.79 1015.82 1015.99 1016.11 1016.37 1016.54 1016.88 1016.97 1016.88 1016.58 1016.42 1016.39 1016.48 1016.91 1017.22 1017.29 1017.53 1017.53 1017.65 1017.71 1017.87
1007.61 1008.88 1009.39 1008.91 1007.67 1006.18 1004.97 1004.84 1004.93 1004.73 1005.70 1006.32 1006.65 1007.72 1008.83 1009.44 1009.79 1010.88 1011.60 1012.34 1013.00 1013.59 1014.09 1014.58 1014.93 1015.23 1015.32 1015.54 1015.61 1015.70 1015.85 1015.98 1016.20 1016.51 1016.57 1016.83 1017.01 1016.83 1016.78 1016.69 1016.58 1016.84 1017.33 1017.47 1017.42 1017.51 1017.58 1017.66 1017.74
1006.28 1006.91 1008.03 1008.52 1008.17 1007.25 1005.30 1005.07 1005.18 1005.41 1006.07 1006.90 1007.54 1008.40 1009.02 1009.62 1010.28 1011.02 1011.67 1012.22 1012.82 1013.60 1014.00 1014.35 1014.55 1014.97 1015.03 1015.08 1015.42 1015.78 1015.82 1015.86 1015.95 1016.40 1017.00 1017.10 1017.20 1017.64 1017.60 1017.18 1016.98 1017.02 1017.42 1017.75 1017.69 1017.75 1017.95 1018.01 1018.10
1005.52 1005.72 1005.95 1007.39 1007.40 1007.08 1006.27 1005.71 1005.37 1005.49 1005.98 1006.46 1007.35 1008.31 1009.11 1009.82 1010.48 1011.13 1011.81 1012.26 1012.45 1013.11 1013.37 1013.97 1014.35 1014.55 1014.67 1014.92 1015.30 1015.78 1015.88 1015.91 1016.04 1016.41 1017.52 1017.45 1017.71 1017.61 1017.36 1017.77 1017.77 1017.58 1017.74 1018.02 1018.00 1018.28 1018.37 1018.36 1018.17
1004.50 1004.25 1004.36 1005.66 1005.92 1006.91 1007.14 1007.02 1006.27 1005.82 1005.99 1006.09 1007.11 1008.18 1008.91 1009.88 1010.54 1010.92 1011.61 1012.11 1012.27 1012.67 1013.04 1013.68 1014.09 1014.47 1014.73 1014.86 1015.11 1015.53 1015.98 1015.96 1016.08 1016.46 1017.48 1016.67 1017.21 1017.52 1018.13 1016.96 1017.19 1017.52 1017.57 1017.91 1018.03 1018.24 1018.43 1018.33 1018.04
1003.77 1003.53 1003.64 1004.01 1005.72 1007.19 1008.00 1007.90 1007.16 1006.67 1005.93 1006.44 1007.21 1008.31 1008.89 1009.67 1010.20 1010.67 1011.03 1011.73 1012.09 1012.54 1013.16 1013.67 1013.97 1014.56 1014.56 1014.85 1015.42 1015.31 1015.61 1015.67 1016.11 1016.51 1017.12 1017.08 1017.38 1018.40 1018.20 1017.61 1017.10 1017.07 1017.18 1017.72 1018.03 1018.04 1017.86 1018.00 1017.74
1001.78 1002.87 1003.74 1005.49 1007.53 1007.61 1008.53 1009.12 1009.03 1007.71 1006.42 1006.62 1007.37 1008.32 1008.87 1009.34 1009.82 1010.34 1010.88 1011.59 1011.91 1012.58 1013.22 1013.59 1014.11 1014.33 1014.68 1014.94 1015.01 1015.41 1016.17 1016.04 1016.34 1016.10 1015.99 1016.92 1017.10 1017.33 1017.99 1017.98 1017.39 1017.20 1017.07 1016.97 1017.33 1018.02 1017.57 1017.73 1017.49
1002.44 1003.01 1004.76 1006.03 1008.27 1009.73 1009.94 1010.38 1010.16 1008.93 1006.92 1006.93 1007.64 1008.20 1008.64 1009.11 1009.50 1010.10 1010.60 1011.35 1011.77 1012.55 1013.04 1013.53 1014.12 1014.26 1014.59 1014.71 1014.71 1015.26 1016.24 1015.67 1015.78 1016.06 1015.96 1015.73 1016.15 1016.15 1016.30 1016.96 1017.03 1017.30 1017.25 1017.26 1017.71 1017.58 1016.87 1017.06 1017.33
1002.91 1003.60 1004.85 1007.12 1008.43 1010.64 1010.82 1010.89 1008.37 1009.06 1008.53 1006.74 1007.63 1008.15 1008.54 1008.91 1009.29 1009.89 1010.36 1011.05 1011.59 1012.47 1013.11 1013.48 1014.02 1014.43 1014.54 1014.71 1014.54 1014.72 1015.63 1015.68 1015.75 1015.75 1016.09 1016.33 1016.10 1016.17 1015.96 1016.20 1016.55 1016.78 1017.34 1017.44 1017.37 1017.42 1017.37 1017.15 1017.26
1002.65 1004.08 1005.48 1007.14 1008.07 1009.90 1010.79 1011.97 1008.91 1008.45 1007.98 1007.40 1007.39 1007.99 1008.21 1008.71 1009.19 1009.62 1010.19 1010.88 1011.53 1012.33 1012.95 1013.49 1013.92 1014.34 1014.60 1014.61 1014.19 1014.46 1015.21 1015.49 1015.54 1015.91 1015.96 1016.17 1016.12 1016.13 1016.29 1016.36 1016.73 1016.95 1017.03 1017.07 1017.17 1017.17 1017.14 1017.34 1017.08
1003.20 1004.55 1005.83 1007.23 1008.63 1009.57 1010.68 1011.34 1009.32 1008.23 1008.41 1008.54 1007.37 1007.72 1007.97 1008.25 1008.84 1009.35 1009.99 1010.72 1011.46 1012.19 1012.71 1013.37 1013.84 1014.32 1014.57 1014.81 1014.79 1014.62 1014.63 1015.42 1015.78 1016.04 1016.09 1016.25 1016.33 1016.28 1016.66 1016.85 1016.93 1016.97 1017.29 1017.40 1017.33 1017.29 1017.03 1017.18 1017.30
1002.68 1003.53 1005.03 1006.91 1008.47 1009.40 1010.05 1009.33 1008.27 1007.91 1008.20 1008.74 1008.15 1007.46 1007.66 1008.01 1008.31 1008.95 1009.63 1010.45 1011.38 1012.05 1012.74 1013.32 1013.59 1014.23 1014.68 1014.92 1015.19 1014.96 1015.07 1015.32 1015.70 1015.80 1015.95 1016.13 1016.27 1016.35 1016.37 1016.89 1017.12 1017.26 1017.37 1017.55 1017.61 1017.60 1017.69 1017.77 1017.63
1001.95 1002.51 1003.79 1006.18 1007.32 1007.91 1008.95 1007.84 1007.37 1007.84 1008.48 1009.23 1009.33 1007.61 1007.27 1007.58 1008.14 1008.63 1009.31 1010.17 1011.04 1011.80 1012.40 1013.23 1013.51 1014.04 1014.48 1014.73 1014.83 1014.78 1014.82 1015.32 1015.26 1015.37 1015.54 1015.68 1016.03 1016.14 1016.17 1016.71 1017.09 1017.09 1017.33 1017.49 1017.71 1017.89 1018.22 1018.33 1018.08
1001.40 1001.72 1002.70 1004.41 1006.51 1007.68 1008.81 1008.63 1007.55 1008.18 1008.70 1008.28 1007.55 1007.63 1006.69 1006.68 1007.54 1008.32 1008.89 1009.74 1010.74 1011.53 1012.15 1012.90 1013.48 1013.85 1014.15 1014.50 1014.78 1014.98 1015.10 1015.44 1015.70 1015.75 1015.75 1015.75 1015.85 1016.01 1016.11 1016.35 1016.69 1017.09 1017.28 1017.69 1017.96 1018.22 1018.38 1018.67 1018.53
1001.02 1000.57 1001.63 1003.58 1005.15 1006.35 1007.28 1007.23 1006.54 1006.94 1008.02 1008.23 1006.97 1006.87 1005.81 1005.97 1006.72 1007.81 1008.50 1009.24 1010.19 1011.13 1011.89 1012.76 1013.32 1013.82 1013.92 1014.41 1014.81 1015.07 1015.31 1015.73 1015.83 1015.82 1015.95 1016.04 1015.82 1015.90 1016.06 1016.33 1016.55 1017.07 1017.39 1017.82 1018.08 1018.30 1018.36 1018.49 1018.80
1000.45 1000.13 1001.02 1002.81 1003.42 1004.51 1005.83 1006.62 1004.14 1004.79 1006.85 1006.24 1006.20 1006.15 1005.04 1005.11 1005.80 1006.87 1007.70 1008.56 1009.49 1010.66 1011.52 1012.28 1013.25 1013.79 1013.99 1014.33 1014.66 1014.81 1015.03 1015.24 1015.52 1015.91 1016.16 1016.27 1016.16 1016.01 1016.10 1016.41 1016.73 1017.33 1017.44 1017.85 1018.06 1018.21 1018.28 1018.37 1018.63
1000.04 1000.19 1000.66 1001.55 1003.18 1003.95 1004.06 1004.66 1003.12 1003.71 1003.21 1003.82 1004.30 1004.20 1003.67 1004.22 1005.13 1006.05 1006.97 1007.88 1008.85 1010.03 1010.98 1011.88 1012.77 1013.55 1013.86 1014.27 1014.49 1014.59 1014.69 1015.26 1015.64 1016.03 1016.47 1016.52 1016.30 1016.35 1016.24 1016.37 1016.82 1017.12 1017.38 1017.69 1017.93 1018.09 1018.22 1018.38 1018.45
1000.03 1000.62 1001.37 1002.01 1003.04 1003.73 1002.20 1001.91 1001.72 1001.06 1001.52 1001.90 1002.77 1002.52 1002.68 1003.26 1004.17 1005.18 1006.32 1007.20 1008.11 1009.23 1010.27 1011.26 1012.18 1013.13 1013.55 1013.96 1014.34 1014.59 1014.61 1014.91 1015.50 1015.76 1016.13 1016.45 1016.47 1016.46 1016.38 1016.46 1016.89 1017.20 1017.21 1017.38 1017.56 1018.05 1018.23 1018.34 1018.42
999.94 1000.50 1001.37 1002.34 1003.48 1003.17 1001.75 1001.03 1000.12 999.42 1000.77 1001.40 1000.80 1001.62 1001.83 1002.49 1003.17 1003.91 1004.79 1005.77 1006.92 1008.05 1009.31 1010.46 1011.47 1012.48 1013.13 1013.64 1014.03 1014.19 1014.50 1014.72 1015.15 1015.51 1015.46 1015.81 1015.99 1016.02 1016.15 1016.28 1016.41 1016.67 1016.92 1017.12 1017.39 1017.90 1018.16 1018.30 1018.40
999.49 1000.00 1000.34 1001.62 1002.52 1002.97 1001.68 1000.00 999.31 999.37 1000.39 1000.35 1000.88 1002.25 1001.61 1002.36 1002.70 1003.27 1003.76 1004.68 1005.84 1007.06 1008.26 1009.24 1010.64 1011.82 1012.44 1013.03 1013.60 1014.01 1014.30 1014.52 1014.89 1015.14 1015.13 1015.27 1015.52 1015.69 1015.89 1015.82 1016.27 1016.30 1016.60 1016.78 1017.24 1017.53 1017.79 1018.02 1018.21
999.04 999.48 1000.21 1000.82 1002.31 1002.82 1001.74 1001.07 1000.93 999.94 1000.34 1001.54 1001.39 1001.08 1000.13 1001.10 1001.71 1002.42 1002.79 1003.94 1004.88 1005.79 1007.37 1008.65 1009.80 1010.86 1011.77 1012.44 1013.09 1013.63 1014.06 1014.30 1014.58 1014.85 1014.94 1014.87 1015.20 1015.26 1015.67 1015.95 1016.06 1016.22 1016.45 1016.67 1016.97 1017.23 1017.40 1017.66 1017.75
998.85 999.16 999.85 1000.54 1001.93 1002.35 1001.97 1001.36 999.91 999.76 999.71 999.78 1001.05 999.99 1000.53 1000.80 1001.19 1001.29 1002.28 1003.22 1004.06 1005.22 1006.60 1007.84 1009.16 1010.14 1011.07 1011.78 1012.45 1013.11 1013.63 1014.09 1014.32 1014.71 1014.83 1014.73 1015.17 1015.41 1015.45 1015.75 1015.94 1016.08 1016.26 1016.52 1016.81 1017.01 1017.19 1017.43 1017.47
998.37 998.77 999.40 1000.28 1001.58 1001.91 1001.56 1000.64 998.46 998.27 999.90 1000.09 1000.60 1000.65 1001.69 1001.33 1000.83 1000.91 1001.05 1002.82 1004.17 1005.11 1006.04 1007.24 1008.65 1009.60 1010.26 1011.09 1011.83 1012.50 1013.02 1013.61 1014.01 1014.25 1014.57 1014.61 1014.71 1015.21 1015.31 1015.42 1015.70 1015.89 1016.04 1016.27 1016.49 1016.69 1016.80 1017.01 1017.15
Thickness
5807 5806 5805 5794 5765 5770 5774 5798 5827 5815 5815 5831 5833 5815 5798 5805 5795 5752 5793 5791 5785 5777 5772 5768 5766 5763 5760 5758 5757 5755 5753 5752 5753 5753 5754 5752 5750 5750 5750 5749 5748 5748 5746 5746 5746 5747 5747 5743 5741
5812 5809 5802 5785 5761 5763 5781 5819 5812 5820 5828 5834 5824 5813 5804 5786 5807 5794 5787 5791 5786 5778 5773 5770 5766 5762 5760 5760 5758 5755 5753 5753 5752 5752 5751 5751 5750 5749 5749 5749 5748 5746 5746 5746 5747 5748 5747 5743 5742
5819 5820 5789 5778 5773 5776 5783 5818 5821 5831 5840 5833 5820 5823 5807 5789 5804 5798 5797 5795 5787 5780 5775 5770 5766 5763 5761 5759 5757 5755 5753 5752 5753 5753 5753 5751 5751 5751 5750 5750 5750 5748 5747 5747 5749 5750 5749 5745 5744
5808 5804 5795 5774 5784 5815 5821 5825 5829 5826 5829 5832 5825 5800 5810 5817 5805 5804 5803 5796 5788 5781 5776 5771 5766 5763 5760 5758 5755 5753 5752 5753 5754 5754 5754 5753 5751 5749 5748 5747 5748 5748 5748 5749 5750 5752 5750 5747 5749
5809 5799 5775 5776 5786 5823 5832 5836 5836 5826 5822 5818 5823 5797 5798 5813 5813 5810 5804 5797 5787 5781 5777 5771 5766 5762 5761 5758 5756 5755 5754 5753 5751 5752 5753 5752 5749 5746 5745 5745 5745 5745 5745 5746 5750 5752 5752 5748 5751
5792 5791 5773 5772 5786 5824 5833 5837 5835 5826 5822 5816 5811 5799 5797 5816 5811 5811 5808 5799 5791 5783 5777 5772 5766 5763 5761 5758 5756 5756 5757 5755 5754 5755 5755 5754 5750 5749 5747 5746 5746 5746 5746 5746 5748 5751 5754 5752 5753
5789 5776 5770 5784 5810 5814 5822 5845 5829 5823 5818 5812 5820 5793 5799 5807 5816 5817 5808 5800 5793 5786 5779 5773 5767 5765 5762 5759 5757 5758 5759 5756 5758 5758 5755 5753 5750 5749 5748 5747 5748 5748 5746 5744 5748 5751 5754 5754 5755
5794 5777 5761 5786 5801 5803 5829 5831 5836 5829 5822 5835 5831 5794 5791 5812 5821 5817 5810 5803 5797 5789 5783 5776 5771 5767 5765 5761 5759 5761 5761 5762 5761 5759 5755 5753 5753 5757 5758 5759 5756 5751 5750 5751 5751 5755 5757 5758 5758
5815 5777 5760 5772 5789 5807 5833 5823 5837 5847 5830 5831 5833 5821 5819 5822 5823 5812 5805 5800 5794 5790 5787 5781 5777 5773 5771 5768 5765 5766 5768 5768 5766 5765 5764 5761 5760 5764 5762 5764 5766 5763 5756 5755 5761 5762 5763 5764 5764
5809 5795 5781 5785 5780 5794 5827 5827 5827 5825 5820 5815 5817 5822 5824 5822 5814 5806 5801 5797 5794 5790 5789 5788 5784 5780 5780 5778 5775 5773 5775 5776 5776 5774 5769 5764 5763 5760 5761 5765 5770 5768 5764 5760 5765 5768 5767 5767 5769
5812 5794 5813 5796 5802 5808 5811 5823 5834 5823 5813 5823 5813 5815 5819 5816 5811 5806 5804 5802 5801 5799 5797 5794 5790 5786 5788 5787 5785 5781 5782 5782 5781 5777 5765 5770 5770 5767 5768 5765 5773 5777 5773 5769 5767 5769 5769 5772 5773
5805 5824 5829 5817 5822 5813 5801 5813 5815 5827 5825 5839 5831 5824 5822 5813 5809 5809 5806 5806 5806 5803 5802 5799 5797 5791 5791 5793 5790 5789 5784 5785 5785 5782 5767 5778 5785 5782 5769 5781 5785 5785 5780 5777 5773 5773 5774 5778 5780
5812 5830 5839 5838 5821 5813 5805 5791 5812 5816 5835 5839 5834 5823 5820 5816 5814 5814 5815 5813 5812 5806 5803 5801 5801 5794 5796 5795 5789 5792 5791 5790 5789 5785 5777 5779 5781 5774 5772 5782 5792 5793 5789 5784 5779 5782 5784 5785 5787
5843 5838 5832 5814 5800 5807 5795 5780 5791 5811 5833 5831 5827 5818 5819 5818 5817 5816 5814 5811 5812 5810 5805 5805 5802 5801 5797 5799 5797 5795 5787 5786 5787 5792 5795 5786 5787 5783 5782 5787 5797 5797 5793 5793 5790 5788 5792 5793 5795
5840 5824 5814 5806 5795 5779 5788 5770 5771 5795 5823 5823 5820 5819 5820 5818 5821 5816 5818 5813 5815 5811 5809 5807 5804 5804 5804 5802 5805 5800 5792 5792 5793 5792 5795 5801 5796 5796 5799 5798 5797 5795 5792 5792 5789 5792 5799 5800 5796
5816 5819 5790 5798 5794 5779 5779 5758 5761 5779 5780 5816 5818 5818 5818 5818 5820 5821 5822 5819 5818 5813 5809 5809 5808 5805 5807 5806 5807 5808 5802 5799 5798 5799 5795 5792 5795 5795 5799 5802 5802 5797 5791 5792 5793 5793 5794 5798 5799
5812 5778 5782 5780 5798 5777 5763 5746 5793 5807 5802 5812 5817 5817 5818 5816 5818 5823 5824 5822 5819 5815 5812 5808 5808 5806 5806 5809 5812 5812 5807 5805 5805 5801 5801 5799 5799 5799 5800 5799 5795 5795 5795 5796 5797 5798 5800 5797 5800
5782 5779 5783 5767 5778 5780 5757 5753 5785 5802 5803 5798 5817 5818 5819 5819 5818 5824 5825 5825 5821 5818 5815 5811 5810 5808 5808 5807 5808 5812 5816 5807 5803 5802 5802 5800 5801 5802 5799 5797 5798 5799 5798 5796 5797 5797 5801 5800 5797
5809 5804 5786 5784 5785 5770 5763 5771 5787 5798 5802 5796 5803 5817 5817 5818 5825 5828 5827 5826 5821 5819 5814 5812 5811 5808 5807 5806 5803 5806 5808 5809 5807 5806 5805 5804 5803 5803 5804 5800 5799 5799 5800 5797 5797 5796 5794 5794 5797
5812 5808 5798 5787 5791 5782 5773 5783 5801 5804 5796 5790 5783 5809 5821 5822 5820 5824 5826 5825 5821 5817 5817 5812 5813 5810 5809 5809 5811 5812 5813 5812 5813 5813 5812 5811 5810 5809 5810 5806 5805 5806 5805 5803 5799 5796 5792 5792 5796
5804 5801 5796 5793 5787 5786 5767 5768 5791 5797 5796 5797 5808 5809 5829 5831 5821 5821 5824 5824 5821 5817 5817 5814 5813 5813 5813 5813 5813 5813 5815 5812 5810 5811 5812 5814 5813 5813 5813 5811 5809 5809 5808 5803 5800 5797 5794 5789 5793
5780 5828 5822 5808 5785 5763 5781 5746 5787 5793 5786 5794 5806 5808 5831 5837 5833 5827 5826 5826 5822 5819 5821 5816 5814 5811 5815 5814 5811 5810 5809 5804 5809 5811 5812 5814 5815 5815 5816 5814 5813 5809 5807 5804 5803 5801 5798 5798 5792
5804 5831 5825 5801 5796 5788 5779 5761 5801 5810 5784 5803 5807 5813 5837 5843 5843 5834 5832 5831 5829 5824 5822 5819 5814 5811 5813 5813 5813 5813 5813 5814 5815 5813 5811 5813 5816 5816 5816 5816 5813 5811 5810 5808 5806 5804 5803 5802 5798
5831 5821 5820 5815 5791 5763 5784 5776 5796 5800 5815 5816 5822 5832 5849 5851 5848 5845 5840 5838 5833 5828 5825 5822 5816 5812 5813 5813 5814 5814 5816 5814 5812 5812 5809 5810 5816 5816 5818 5817 5814 5812 5812 5811 5809 5808 5806 5803 5802
5808 5792 5756 5749 5747 5739 5807 5800 5796 5837 5841 5838 5827 5847 5855 5856 5854 5848 5839 5837 5836 5830 5827 5823 5820 5813 5814 5814 5814 5814 5817 5817 5814 5814 5813 5811 5813 5814 5817 5818 5815 5814 5814 5813 5812 5809 5807 5806 5804
5786 5785 5755 5729 5732 5753 5811 5788 5806 5857 5847 5846 5852 5857 5860 5858 5860 5858 5854 5850 5845 5840 5833 5828 5823 5816 5815 5814 5815 5817 5818 5818 5817 5817 5819 5818 5818 5820 5820 5819 5818 5818 5817 5816 5814 5811 5808 5808 5806
5786 5772 5806 5774 5775 5762 5790 5826 5842 5852 5835 5845 5840 5820 5846 5849 5860 5862 5864 5858 5853 5847 5840 5835 5828 5820 5819 5817 5816 5816 5817 5818 5816 5819 5821 5822 5823 5823 5822 5822 5820 5820 5819 5818 5816 5814 5812 5811 5809
5787 5808 5770 5779 5736 5736 5774 5787 5782 5820 5829 5825 5824 5833 5859 5855 5858 5867 5872 5863 5863 5858 5848 5841 5833 5825 5821 5821 5818 5816 5816 5817 5817 5819 5819 5824 5824 5826 5822 5821 5822 5822 5821 5820 5818 5816 5815 5813 5813
5778 5773 5784 5782 5764 5739 5741 5762 5819 5818 5839 5842 5832 5853 5850 5853 5860 5871 5872 5872 5868 5861 5852 5845 5835 5828 5823 5821 5821 5818 5816 5815 5817 5816 5819 5823 5821 5822 5823 5822 5821 5821 5821 5820 5818 5816 5815 5812 5812
5792 5781 5781 5754 5744 5762 5759 5773 5847 5848 5839 5837 5835 5838 5835 5848 5860 5866 5874 5869 5863 5857 5854 5847 5837 5829 5826 5823 5820 5819 5818 5816 5815 5816 5817 5821 5822 5821 5822 5823 5821 5821 5821 5820 5818 5816 5816 5813 5811